Location: Gleizolles
(44.4833°N, 6.7667°E)
Time: 16:06:12
(UTC+00:00)

Explorer 7 - Pass Details

Date: 17 June 2024
Orbit: 465 x 619 km, 50.3° (Epoch: 12 July)

Event Time Altitude Azimuth Distance (km) Brightness Sun altitude
Rises 19:10:29 0° 286° (WNW) 2,495 12.0 0.6°
Reaches altitude 10° 19:13:18 10° 262° (W) 1,618 10.1 0.2°
Maximum altitude 19:15:27 15° 226° (SW) 1,337 9.0 -0.1°
Drops below altitude 10° 19:17:37 10° 189° (S) 1,628 9.0 -0.4°
Sets 19:20:29 0° 166° (SSE) 2,521 9.7 -0.8°
